Regional Weather Roundup
Issued by NWS

Home | Current Version | Previous Version | Text Only | Print | Product List | Glossary On
Versions: 1 2 3 4 5 6 7 8 9 10 11 12 13 14 15 16 17 18 19 20 21 22 23 24 25 26 27 28 29 30 31 32 33 34 35 36 37 38 39 40 41 42 43 44 45 46 47 48 49 50
000
ASUS43 KOAX 082202
RWRNE

WEATHER ROUNDUP FOR NEBRASKA
NATIONAL WEATHER SERVICE OMAHA NE
400 PM CST MON FEB 08 2016

NOTES: SATELLITE DATA IS BEING USED TO AUGMENT CLOUD COVER ABOVE
       12000 FEET.
       "FAIR" INDICATES FEW OR NO CLOUDS BELOW 12,000 FEET WITH NO
       SIGNIFICANT WEATHER AND/OR OBSTRUCTIONS TO VISIBILITY.

  * THESE STATIONS DO NOT REPORT WEATHER SUCH AS RAIN...SNOW OR FOG.

NEZ001>004-019>022-054>056-082300-
NEBRASKA PANHANDLE

CITY           SKY/WX    TMP DP  RH WIND       PRES   REMARKS
SCOTTSBLUFF    CLOUDY    41  28  60 NW13      30.30S
ALLIANCE       MOSUNNY   36  22  56 N14       30.26F WCI  27
CHADRON        CLOUDY    41  19  41 W9        30.28F
SIDNEY         CLOUDY    39  27  62 N20       30.28S WCI  29
$$

NEZ057>060-069>072-079>082-082300-
SOUTHWEST NEBRASKA

CITY           SKY/WX    TMP DP  RH WIND       PRES   REMARKS
NORTH PLATTE   SUNNY     36  14  40 NW21G32   30.25S WCI  25
IMPERIAL       MOSUNNY   37  19  48 NW21G28   30.28S WCI  26
MCCOOK         MOSUNNY   37  19  48 NW21      30.27S WCI  26
$$

NEZ005>010-023>029-035>040-094-082300-
NORTH CENTRAL NEBRASKA

CITY           SKY/WX    TMP DP  RH WIND       PRES   REMARKS
VALENTINE      PTSUNNY   36  15  42 NW20G28   30.23F WCI  25
BROKEN BOW     MOSUNNY   36  13  38 NW29G46   30.19F WCI  23
ORD            CLOUDY    35  17  47 NW29G39   30.17S WCI  22
$$

NEZ041-046>049-061>064-073>077-083>087-082300-
SOUTH CENTRAL NEBRASKA

CITY           SKY/WX    TMP DP  RH WIND       PRES   REMARKS
GRAND ISLAND   SUNNY     35  17  47 NW26G36   30.17S WCI  22
HASTINGS       SUNNY     35  19  52 NW20      30.18R WCI  24
$$

NEZ011>018-030>034-042>045-082300-
NORTHEAST NEBRASKA

CITY           SKY/WX    TMP DP  RH WIND       PRES   REMARKS
NORFOLK        SUNNY     34  19  54 NW26G43   30.10R WCI  21
COLUMBUS *     SUNNY     34  16  47 NW29G35   30.11S WCI  20
TEKAMAH        SUNNY     31  18  58 NW28G40   30.10S WCI  17
$$

NEZ050>053-065>068-078-088>093-082300-
SOUTHEAST NEBRASKA

CITY           SKY/WX    TMP DP  RH WIND       PRES   REMARKS
LINCOLN        SUNNY     34  18  52 NW26G32   30.13S WCI  21
OMAHA EPPLEY   MOSUNNY   30  18  60 N29G39    30.08S WCI  15
FALLS CITY     MOSUNNY   32  17  54 NW17G31   30.10R WCI  21
$$

NEZ044-045-051>053-067-082300-
OMAHA AREA

CITY           SKY/WX    TMP DP  RH WIND       PRES   REMARKS
OMAHA EPPLEY   MOSUNNY   30  18  60 N29G39    30.08S WCI  15
OFFUTT AFB     MOSUNNY   31  17  56 NW23G37   30.08S WCI  17
$$



USA.gov is the U.S. government's official web portal to all federal, state and local government web resources and services.